{"data":{"norad_id":58110,"intl_designator":"2023-161P","name":"STARLINK-30596","alt_names":[],"object_type":"PAYLOAD","status":"ACTIVE","operator":null,"country":"US","launch_date":"2023-10-21","launch_site_code":"AFWTR","launch_vehicle":null,"mission":null,"orbit_class":"UNKNOWN","rcs_meters":null,"size_class":null,"mass_kg":null,"dimensions":null,"purposes":["comms"],"wikipedia_slug":null,"has_3d_model":false,"image_url":null,"decayed_at":null,"tle_current":{"epoch":"2026-05-25T00:47:18.434400Z","epoch_age_seconds":79107,"freshness":"FRESH","line1":"1 58110U 23161P   26145.03285225  .00001748  00000+0  71142-4 0  9991","line2":"2 58110  53.1593 170.6758 0000924  88.4211 271.6896 15.30190876146118","mean_motion":15.30190876,"eccentricity":9.24e-5,"inclination_deg":53.1593,"raan_deg":170.6758,"arg_perigee_deg":88.4211,"mean_anomaly_deg":271.6896,"bstar":7.1142e-5,"rev_number":14611,"period_min":94.105906824137,"perigee_km":474.60905992563,"apogee_km":475.87556442252,"semimajor_km":6853.3793121741,"source":"CELESTRAK","updated_at":"2026-05-25T13:38:18.528736Z"}}}